Terminal Aerodrome Forecast
Issued by NWS Sioux Falls, SD

Home | Current Version | Previous Version | Graphics & Text | Print | Product List | Glossary On
Versions: 1 2 3 4 5 6 7 8 9 10 11 12 13 14 15 16 17 18 19
174
FTUS43 KFSD 201518 AAB
TAFFSD
TAF AMD
KFSD 201518Z 2015/2112 20012G18KT P6SM SCT150
     FM201800 19014G23KT P6SM SCT120
     FM210100 17012KT P6SM SKC
     FM210500 15007KT P6SM SCT120=

USA.gov is the U.S. government's official web portal to all federal, state and local government web resources and services.